Crossville, TN

7:37 AM CST on December 05, 2016 (GMT -0600)
Crossville Memorial-Whitson

Weather History for KCSV - September, 2013

Change the Weather History Date:

Sunday, September 1, 2013

  Actual Average Record
Temperature  
Mean Temperature 75 °F 72 °F  
Max Temperature 83 °F 82 °F 95 °F (1957)
Min Temperature 67 °F 62 °F 43 °F (1954)
Degree Days  
Heating Degree Days 0    
Month to date heating degree days 0  
Since 1 July heating degree days 0  
Cooling Degree Days 10    
Month to date cooling degree days 10  
Year to date cooling degree days 767  
Growing Degree Days 24 (Base 50)    
Moisture  
Dew Point 66 °F    
Average Humidity 78    
Maximum Humidity 93    
Minimum Humidity 62    
Precipitation  
Precipitation 0.20 in 0.12 in 1.25 in (1976)
Month to date precipitation 0.20 0.12  
Year to date precipitation 46.81 38.24  
Sea Level Pressure  
Sea Level Pressure 29.92 in    
Wind  
Wind Speed 3 mph (West)    
Max Wind Speed 5 mph    
Max Gust Speed 6 mph    
Visibility 8 miles    
Events Rain , Thunderstorm    
T = Trace of Precipitation, MM = Missing Value Source: NWS Daily Summary

Daily Weather History Graph

Daily Weather History Graph

Search for Another Location

Airport or City:

Trip Planner

Search our weather history database for the weather conditions in past years. The results will help you decide how hot, cold, wet, or windy it might be!

Date:

Astronomy

Sep. 01, 2013 Rise Set
Actual Time 6:12 AM CDT 7:07 PM CDT
Civil Twilight 5:46 AM CDT 7:33 PM CDT
Nautical Twilight 5:15 AM CDT 8:04 PM CDT
Astronomical Twilight 4:43 AM CDT 8:36 PM CDT
Moon 2:38 AM CDT (9/1) 4:40 PM CDT (9/1)
Length of Visible Light 13h 47m
Length of Day
12h 55m
Waning Crescent, 13% of the Moon is Illuminated
Sep 1
Waning Crescent
Sep 5
New
Sep 12
First Quarter
Sep 19
Full
Sep 26
Last Quarter

Hourly Weather History & Observations

Time (CDT) Temp. Heat Index Dew Point Humidity Pressure Visibility Wind Dir Wind Speed Gust Speed Precip Events Conditions
12:53 AM 70.0 °F - 66.0 °F 87% 29.90 in 10.0 mi NNE 6.9 mph - N/A   Mostly Cloudy
1:53 AM 69.1 °F - 64.9 °F 87% 29.91 in 10.0 mi North 5.8 mph - N/A   Scattered Clouds
2:53 AM 66.9 °F - 64.9 °F 93% 29.89 in 10.0 mi Calm Calm - 0.04 in   Clear
4:53 AM 66.9 °F - 64.9 °F 93% 29.87 in 10.0 mi Calm Calm - N/A   Scattered Clouds
5:53 AM 70.0 °F - 66.9 °F 90% 29.87 in 5.0 mi Calm Calm - 0.00 in   Scattered Clouds
6:10 AM 69.8 °F - 66.2 °F 88% 29.97 in 6.0 mi NW 11.5 mph 18.4 mph N/A   Mostly Cloudy
6:22 AM 69.8 °F - 66.2 °F 88% 29.98 in 7.0 mi Calm Calm - N/A   Mostly Cloudy
6:53 AM 70.0 °F - 66.9 °F 90% 29.90 in 6.0 mi Calm Calm - N/A   Overcast
7:28 AM 69.8 °F - 66.2 °F 88% 29.98 in 7.0 mi SSE 3.5 mph - N/A Thunderstorm Overcast
7:46 AM 69.8 °F - 66.2 °F 88% 29.98 in 2.5 mi WSW 8.1 mph - 0.03 in Rain , Thunderstorm Light Thunderstorms and Rain
7:51 AM 69.8 °F - 66.2 °F 88% 29.98 in 1.0 mi WSW 6.9 mph - 0.08 in Rain , Thunderstorm Heavy Thunderstorms and Rain
7:53 AM 69.1 °F - 66.0 °F 90% 29.92 in 0.8 mi West 6.9 mph - 0.09 in Rain , Thunderstorm Heavy Thunderstorms and Rain
8:02 AM 68.0 °F - 64.4 °F 88% 29.98 in 1.8 mi SW 5.8 mph - 0.03 in Rain , Thunderstorm Light Thunderstorms and Rain
8:05 AM 68.0 °F - 64.4 °F 88% 29.98 in 3.0 mi SW 5.8 mph - 0.03 in Rain , Thunderstorm Light Thunderstorms and Rain
8:28 AM 68.0 °F - 64.4 °F 88% 29.96 in 4.0 mi SW 5.8 mph - 0.06 in Rain Light Rain
8:53 AM 69.1 °F - 66.0 °F 90% 29.89 in 10.0 mi SW 3.5 mph - 0.07 in   Mostly Cloudy
9:53 AM 73.0 °F - 68.0 °F 84% 29.89 in 10.0 mi Variable 6.9 mph - N/A   Clear
10:53 AM 77.0 °F - 69.1 °F 76% 29.90 in 10.0 mi Variable 4.6 mph - N/A   Clear
11:53 AM 82.0 °F 85.9 °F 70.0 °F 67% 29.89 in 10.0 mi Variable 3.5 mph - N/A   Clear
12:53 PM 80.1 °F 82.3 °F 66.9 °F 64% 29.90 in 10.0 mi West 5.8 mph - N/A   Mostly Cloudy
1:53 PM 79.0 °F - 69.1 °F 72% 29.89 in 10.0 mi West 4.6 mph - 0.00 in   Mostly Cloudy
2:53 PM 82.0 °F 84.9 °F 68.0 °F 62% 29.87 in 10.0 mi WNW 10.4 mph - N/A   Partly Cloudy
3:53 PM 78.1 °F - 68.0 °F 71% 29.88 in 10.0 mi West 9.2 mph 16.1 mph N/A   Partly Cloudy
4:53 PM 75.0 °F - 64.9 °F 71% 29.89 in 10.0 mi West 5.8 mph - N/A   Partly Cloudy
5:53 PM 75.9 °F - 66.9 °F 74% 29.88 in 10.0 mi West 4.6 mph - N/A   Clear
6:53 PM 73.0 °F - 66.0 °F 79% 29.88 in 10.0 mi WSW 3.5 mph - N/A   Clear
7:53 PM 70.0 °F - 66.0 °F 87% 29.90 in 10.0 mi Calm Calm - N/A   Clear
8:53 PM 69.1 °F - 66.0 °F 90% 29.92 in 5.0 mi Calm Calm - N/A   Clear
9:53 PM 68.0 °F - 64.9 °F 90% 29.91 in 6.0 mi Calm Calm - N/A   Clear
10:53 PM 69.1 °F - 64.9 °F 87% 29.91 in 9.0 mi Calm Calm - N/A   Clear
11:53 PM 69.1 °F - 64.9 °F 87% 29.90 in 8.0 mi Calm Calm - N/A   Clear